Simultaneous Nadir Overpasses (SNOs) Predictions

Prediction of SNOs over PacNW region [( 10.00, 139.50) to ( 22.70, 165.60)] between NOAA-19 and NPP Satellites:

Table of predicted SNOs over PacNW region for the next 30.0 days since TLE Epoch: 6/23/2014
Index Date (NOAA-19) Time (NOAA-19) NOAA-19 Lat,Lon Date (NPP) Time (NPP) NPP Lat,Lon Distance(km) Time Diff (sec)
1 06/28/2014 15:08:27 22.59, 164.62 06/28/2014 15:11:20 23.91, 158.97 595.46 173
2 06/29/2014 04:06:59 22.69, 142.50 06/29/2014 04:05:37 21.77, 137.97 477.58 82
3 07/11/2014 16:07:20 22.63, 150.05 07/11/2014 16:08:38 23.90, 144.73 561.57 78
4 07/12/2014 03:23:47 22.64, 153.46 07/12/2014 03:21:25 21.79, 149.10 458.01 142




NCC Satellite Simultaneous Nadir Overpasses (SNOs) Prediction Service
